Time,TemperatureF,DewpointF,PressureIn,WindDirection,WindDirectionDegrees,WindSpeedMPH,WindSpeedGustMPH,Humidity,HourlyPrecipIn,Conditions,Clouds,dailyrainin,SoftwareType,DateUTC
2013-01-28 00:02:00,69.3,63.5,30.00,WSW,242,13.0,14.0,82,0.00,,,0.00,meteohub,2013-01-28 06:02:00,
2013-01-28 00:22:00,69.3,63.9,30.00,SSW,212,7.0,16.0,83,0.00,,,0.00,meteohub,2013-01-28 06:22:00,
2013-01-28 00:35:00,69.3,63.9,30.01,SSW,201,5.0,17.0,83,0.00,,,0.00,meteohub,2013-01-28 06:35:00,
2013-01-28 00:44:00,69.3,63.9,30.01,SSW,205,7.0,17.0,83,0.00,,,0.00,meteohub,2013-01-28 06:44:00,
2013-01-28 00:50:00,69.1,63.7,30.01,SW,223,5.0,13.0,83,0.00,,,0.00,meteohub,2013-01-28 06:50:00,
2013-01-28 00:56:00,69.1,63.7,30.01,South,184,9.0,13.0,83,0.00,,,0.00,meteohub,2013-01-28 06:56:00,
2013-01-28 01:09:00,68.9,63.9,30.01,SSW,198,6.0,14.0,84,0.00,,,0.00,meteohub,2013-01-28 07:09:00,
2013-01-28 01:18:00,68.7,63.7,30.01,SSW,195,4.0,14.0,84,0.00,,,0.00,meteohub,2013-01-28 07:18:00,
2013-01-28 01:30:00,68.5,63.5,30.00,SW,216,8.0,11.0,84,0.00,,,0.00,meteohub,2013-01-28 07:30:00,
2013-01-28 01:36:00,68.5,63.9,30.00,South,175,6.0,11.0,85,0.00,,,0.00,meteohub,2013-01-28 07:36:00,
2013-01-28 01:42:00,68.5,63.9,30.00,SSW,201,3.0,11.0,85,0.00,,,0.00,meteohub,2013-01-28 07:42:00,
2013-01-28 01:47:00,68.5,63.9,30.01,SW,222,11.0,12.0,85,0.00,,,0.00,meteohub,2013-01-28 07:47:00,
2013-01-28 01:53:00,68.5,63.9,30.00,SSW,205,6.0,12.0,85,0.00,,,0.00,meteohub,2013-01-28 07:53:00,
2013-01-28 01:58:00,68.5,63.9,30.01,South,180,4.0,12.0,85,0.00,,,0.00,meteohub,2013-01-28 07:58:00,
2013-01-28 02:05:00,68.5,63.9,30.00,South,176,6.0,12.0,85,0.00,,,0.00,meteohub,2013-01-28 08:05:00,
2013-01-28 02:11:00,68.5,63.9,30.00,South,171,5.0,12.0,85,0.00,,,0.00,meteohub,2013-01-28 08:11:00,
2013-01-28 02:17:00,68.4,63.7,30.00,South,184,2.0,11.0,85,0.00,,,0.00,meteohub,2013-01-28 08:17:00,
2013-01-28 02:26:00,68.4,63.7,30.00,SSW,194,4.0,10.0,85,0.00,,,0.00,meteohub,2013-01-28 08:26:00,
2013-01-28 02:34:00,68.4,63.7,30.00,SSW,198,5.0,11.0,85,0.00,,,0.00,meteohub,2013-01-28 08:34:00,
2013-01-28 02:42:00,68.5,63.9,30.00,SSE,163,7.0,11.0,85,0.00,,,0.00,meteohub,2013-01-28 08:42:00,
2013-01-28 02:50:00,68.5,63.9,30.00,SSE,164,5.0,12.0,85,0.00,,,0.00,meteohub,2013-01-28 08:50:00,
2013-01-28 02:58:00,68.5,63.5,30.00,SSW,211,7.0,13.0,84,0.00,,,0.00,meteohub,2013-01-28 08:58:00,
2013-01-28 03:06:00,68.5,63.5,30.00,SSW,196,9.0,11.0,84,0.00,,,0.00,meteohub,2013-01-28 09:06:00,
2013-01-28 03:14:00,68.5,63.5,29.99,South,182,5.0,12.0,84,0.00,,,0.00,meteohub,2013-01-28 09:14:00,
2013-01-28 03:22:00,68.5,63.5,30.00,South,174,9.0,13.0,84,0.00,,,0.00,meteohub,2013-01-28 09:22:00,
2013-01-28 03:29:00,68.5,63.5,29.99,South,191,10.0,13.0,84,0.00,,,0.00,meteohub,2013-01-28 09:29:00,
2013-01-28 03:34:00,68.5,63.5,29.99,South,182,6.0,13.0,84,0.00,,,0.00,meteohub,2013-01-28 09:34:00,
2013-01-28 03:40:00,68.5,63.5,29.99,South,176,4.0,13.0,84,0.00,,,0.00,meteohub,2013-01-28 09:40:00,
2013-01-28 03:47:00,68.5,63.5,29.99,SSE,165,8.0,12.0,84,0.00,,,0.00,meteohub,2013-01-28 09:47:00,
2013-01-28 03:58:00,68.5,63.9,29.99,SSW,192,3.0,11.0,85,0.00,,,0.00,meteohub,2013-01-28 09:58:00,
2013-01-28 04:08:00,68.5,63.9,29.99,SSW,209,8.0,11.0,85,0.00,,,0.00,meteohub,2013-01-28 10:08:00,
2013-01-28 04:16:00,68.4,63.7,29.99,South,173,4.0,13.0,85,0.00,,,0.00,meteohub,2013-01-28 10:16:00,
2013-01-28 04:24:00,68.2,63.5,29.99,SSW,202,6.0,13.0,85,0.00,,,0.00,meteohub,2013-01-28 10:24:00,
2013-01-28 04:37:00,68.2,63.5,29.99,SSE,161,7.0,11.0,85,0.00,,,0.00,meteohub,2013-01-28 10:37:00,
2013-01-28 04:42:00,68.2,63.5,29.99,SSW,197,7.0,11.0,85,0.00,,,0.00,meteohub,2013-01-28 10:42:00,
2013-01-28 04:54:00,68.2,63.5,29.99,South,176,7.0,11.0,85,0.00,,,0.00,meteohub,2013-01-28 10:54:00,
2013-01-28 05:02:00,68.2,63.5,29.99,SSW,205,6.0,11.0,85,0.00,,,0.00,meteohub,2013-01-28 11:02:00,
2013-01-28 05:12:00,68.4,63.7,29.99,SSE,159,8.0,13.0,85,0.00,,,0.00,meteohub,2013-01-28 11:12:00,
2013-01-28 05:20:00,68.4,63.7,29.99,SSE,168,2.0,13.0,85,0.00,,,0.00,meteohub,2013-01-28 11:20:00,
2013-01-28 05:32:00,68.2,63.5,29.99,SSW,192,7.0,13.0,85,0.00,,,0.00,meteohub,2013-01-28 11:32:00,
2013-01-28 05:46:00,68.2,63.9,29.99,South,175,5.0,12.0,86,0.00,,,0.00,meteohub,2013-01-28 11:46:00,
2013-01-28 05:52:00,67.8,63.5,29.99,SSW,205,3.0,12.0,86,0.00,,,0.00,meteohub,2013-01-28 11:52:00,
2013-01-28 05:57:00,67.8,63.5,29.99,SSE,162,7.0,13.0,86,0.00,,,0.00,meteohub,2013-01-28 11:57:00,
2013-01-28 06:03:00,67.6,63.3,29.99,South,175,6.0,13.0,86,0.00,,,0.00,meteohub,2013-01-28 12:03:00,
2013-01-28 06:09:00,67.6,63.3,29.99,South,175,5.0,13.0,86,0.00,,,0.00,meteohub,2013-01-28 12:09:00,
2013-01-28 06:14:00,67.8,63.5,29.99,SSW,198,7.0,12.0,86,0.00,,,0.00,meteohub,2013-01-28 12:14:00,
2013-01-28 06:43:00,67.6,63.3,29.99,South,173,3.0,13.0,86,0.00,,,0.00,meteohub,2013-01-28 12:43:00,
2013-01-28 06:51:00,67.5,63.1,29.99,South,174,7.0,12.0,86,0.00,,,0.00,meteohub,2013-01-28 12:51:00,
2013-01-28 06:57:00,67.5,63.1,30.00,South,175,5.0,12.0,86,0.00,,,0.00,meteohub,2013-01-28 12:57:00,
2013-01-28 07:02:00,67.5,63.1,29.99,South,171,8.0,13.0,86,0.00,,,0.00,meteohub,2013-01-28 13:02:00,
2013-01-28 07:10:00,67.5,63.1,30.00,SSE,150,6.0,13.0,86,0.00,,,0.00,meteohub,2013-01-28 13:10:00,
2013-01-28 07:17:00,67.5,63.1,30.00,South,176,11.0,15.0,86,0.00,,,0.00,meteohub,2013-01-28 13:17:00,
2013-01-28 07:22:00,67.3,63.3,30.00,South,178,7.0,12.0,87,0.00,,,0.00,meteohub,2013-01-28 13:22:00,
2013-01-28 07:28:00,67.3,63.3,30.00,SSW,196,6.0,14.0,87,0.00,,,0.00,meteohub,2013-01-28 13:28:00,
2013-01-28 07:34:00,67.3,63.3,30.00,SSE,162,8.0,14.0,87,0.00,,,0.00,meteohub,2013-01-28 13:34:00,
2013-01-28 07:41:00,67.3,63.3,30.00,South,189,5.0,12.0,87,0.00,,,0.00,meteohub,2013-01-28 13:41:00,
2013-01-28 07:52:00,67.3,63.3,30.00,South,188,8.0,17.0,87,0.00,,,0.00,meteohub,2013-01-28 13:52:00,
2013-01-28 07:58:00,67.3,63.3,30.00,SSE,152,7.0,17.0,87,0.00,,,0.00,meteohub,2013-01-28 13:58:00,
2013-01-28 08:04:00,67.5,63.5,30.00,South,183,10.0,10.0,87,0.00,,,0.00,meteohub,2013-01-28 14:04:00,
2013-01-28 08:12:00,67.5,63.1,30.00,South,183,11.0,14.0,86,0.00,,,0.00,meteohub,2013-01-28 14:12:00,
2013-01-28 08:23:00,67.6,63.3,30.00,SSE,157,5.0,14.0,86,0.00,,,0.00,meteohub,2013-01-28 14:23:00,
2013-01-28 08:29:00,67.8,63.5,30.00,SSW,192,9.0,14.0,86,0.00,,,0.00,meteohub,2013-01-28 14:29:00,
2013-01-28 08:38:00,68.0,63.7,30.00,SSW,210,6.0,14.0,86,0.00,,,0.00,meteohub,2013-01-28 14:38:00,
2013-01-28 08:47:00,68.2,63.9,30.00,South,182,6.0,14.0,86,0.00,,,0.00,meteohub,2013-01-28 14:47:00,
2013-01-28 08:52:00,68.4,64.0,30.00,South,191,11.0,13.0,86,0.00,,,0.00,meteohub,2013-01-28 14:52:00,
2013-01-28 09:00:00,68.4,63.7,30.00,South,182,4.0,13.0,85,0.00,,,0.00,meteohub,2013-01-28 15:00:00,
2013-01-28 09:07:00,68.4,63.7,30.00,SSW,197,6.0,13.0,85,0.00,,,0.00,meteohub,2013-01-28 15:07:00,
2013-01-28 09:12:00,68.4,64.0,30.00,South,189,8.0,12.0,86,0.00,,,0.00,meteohub,2013-01-28 15:12:00,
2013-01-28 09:17:00,68.4,64.0,30.00,South,178,11.0,12.0,86,0.00,,,0.00,meteohub,2013-01-28 15:17:00,
2013-01-28 09:22:00,68.4,64.0,30.00,South,190,3.0,12.0,86,0.00,,,0.00,meteohub,2013-01-28 15:22:00,
2013-01-28 09:31:00,68.4,64.0,30.00,South,180,8.0,11.0,86,0.00,,,0.00,meteohub,2013-01-28 15:31:00,
2013-01-28 09:37:00,68.5,64.2,30.00,SSE,164,6.0,12.0,86,0.00,,,0.00,meteohub,2013-01-28 15:37:00,
2013-01-28 09:42:00,68.7,64.4,30.00,South,180,7.0,12.0,86,0.00,,,0.00,meteohub,2013-01-28 15:42:00,
2013-01-28 09:50:00,69.3,64.6,30.00,South,178,2.0,12.0,85,0.00,,,0.00,meteohub,2013-01-28 15:50:00,
2013-01-28 09:56:00,69.4,64.8,30.00,SSW,195,7.0,12.0,85,0.00,,,0.00,meteohub,2013-01-28 15:56:00,
2013-01-28 10:04:00,69.4,64.4,30.00,SSW,194,7.0,12.0,84,0.00,,,0.00,meteohub,2013-01-28 16:04:00,
2013-01-28 10:12:00,69.6,64.6,30.00,SW,219,9.0,12.0,84,0.00,,,0.00,meteohub,2013-01-28 16:12:00,
2013-01-28 10:20:00,70.0,64.9,30.00,South,175,6.0,15.0,84,0.00,,,0.00,meteohub,2013-01-28 16:20:00,
2013-01-28 10:26:00,70.2,64.8,30.00,SSW,204,6.0,15.0,83,0.00,,,0.00,meteohub,2013-01-28 16:26:00,
2013-01-28 10:31:00,70.3,64.9,30.00,SSW,209,7.0,13.0,83,0.00,,,0.00,meteohub,2013-01-28 16:31:00,
2013-01-28 10:38:00,70.5,65.1,30.00,SSE,161,10.0,13.0,83,0.00,,,0.00,meteohub,2013-01-28 16:38:00,
2013-01-28 10:48:00,70.9,65.5,30.00,SW,218,12.0,15.0,83,0.00,,,0.00,meteohub,2013-01-28 16:48:00,
2013-01-28 10:54:00,71.1,65.3,29.99,SW,228,6.0,15.0,82,0.00,,,0.00,meteohub,2013-01-28 16:54:00,
2013-01-28 11:04:00,71.2,65.5,29.99,SW,230,7.0,17.0,82,0.00,,,0.00,meteohub,2013-01-28 17:04:00,
2013-01-28 11:12:00,71.8,65.7,29.99,WSW,238,9.0,15.0,81,0.00,,,0.00,meteohub,2013-01-28 17:12:00,
2013-01-28 11:27:00,72.1,65.7,29.99,SSW,195,7.0,15.0,80,0.00,,,0.00,meteohub,2013-01-28 17:27:00,
2013-01-28 11:32:00,72.1,65.7,29.98,SSW,197,7.0,16.0,80,0.00,,,0.00,meteohub,2013-01-28 17:32:00,
2013-01-28 11:42:00,72.1,65.7,29.98,SW,234,7.0,16.0,80,0.00,,,0.00,meteohub,2013-01-28 17:42:00,
2013-01-28 11:47:00,72.3,65.8,29.98,SSW,193,7.0,16.0,80,0.00,,,0.00,meteohub,2013-01-28 17:47:00,
2013-01-28 11:52:00,72.9,66.0,29.97,SW,216,12.0,18.0,79,0.00,,,0.00,meteohub,2013-01-28 17:52:00,
2013-01-28 11:57:00,73.0,65.8,29.97,South,181,4.0,18.0,78,0.00,,,0.00,meteohub,2013-01-28 17:57:00,
2013-01-28 12:03:00,73.6,65.8,29.96,SSW,211,21.0,21.0,77,0.00,,,0.00,meteohub,2013-01-28 18:03:00,
2013-01-28 12:11:00,73.9,65.8,29.96,SSW,194,7.0,21.0,76,0.00,,,0.00,meteohub,2013-01-28 18:11:00,
2013-01-28 12:17:00,74.1,65.7,29.95,SSW,211,13.0,21.0,75,0.00,,,0.00,meteohub,2013-01-28 18:17:00,
2013-01-28 12:31:00,73.9,65.5,29.95,South,175,7.0,22.0,75,0.00,,,0.00,meteohub,2013-01-28 18:31:00,
2013-01-28 12:47:00,73.9,65.5,29.94,SSW,196,8.0,18.0,75,0.00,,,0.00,meteohub,2013-01-28 18:47:00,
2013-01-28 12:55:00,73.8,65.7,29.93,SSW,195,9.0,22.0,76,0.00,,,0.00,meteohub,2013-01-28 18:55:00,
2013-01-28 13:10:00,73.4,65.3,29.92,SSE,150,4.0,16.0,76,0.00,,,0.00,meteohub,2013-01-28 19:10:00,
2013-01-28 13:16:00,73.6,65.5,29.92,South,191,8.0,17.0,76,0.00,,,0.00,meteohub,2013-01-28 19:16:00,
2013-01-28 13:26:00,73.6,65.5,29.91,South,179,7.0,15.0,76,0.00,,,0.00,meteohub,2013-01-28 19:26:00,
2013-01-28 13:32:00,73.6,65.5,29.91,South,180,11.0,15.0,76,0.00,,,0.00,meteohub,2013-01-28 19:32:00,
2013-01-28 13:39:00,73.8,65.3,29.90,South,190,11.0,16.0,75,0.00,,,0.00,meteohub,2013-01-28 19:39:00,
2013-01-28 13:45:00,73.9,65.5,29.90,SE,142,8.0,21.0,75,0.00,,,0.00,meteohub,2013-01-28 19:45:00,
2013-01-28 13:51:00,73.9,65.5,29.90,SSE,154,7.0,21.0,75,0.00,,,0.00,meteohub,2013-01-28 19:51:00,
2013-01-28 13:59:00,73.9,65.5,29.89,South,170,6.0,21.0,75,0.00,,,0.00,meteohub,2013-01-28 19:59:00,
2013-01-28 14:04:00,73.9,65.5,29.89,South,175,5.0,18.0,75,0.00,,,0.00,meteohub,2013-01-28 20:04:00,
2013-01-28 14:11:00,73.8,65.3,29.89,SSW,211,7.0,18.0,75,0.00,,,0.00,meteohub,2013-01-28 20:11:00,
2013-01-28 14:16:00,73.9,65.5,29.88,SSW,198,5.0,18.0,75,0.00,,,0.00,meteohub,2013-01-28 20:16:00,
2013-01-28 14:42:00,74.7,65.1,29.87,SSW,194,9.0,16.0,72,0.00,,,0.00,meteohub,2013-01-28 20:42:00,
2013-01-28 14:47:00,74.8,65.1,29.87,SSW,192,7.0,20.0,72,0.00,,,0.00,meteohub,2013-01-28 20:47:00,
2013-01-28 14:54:00,75.0,65.8,29.87,SSW,204,16.0,20.0,73,0.00,,,0.00,meteohub,2013-01-28 20:54:00,
2013-01-28 15:02:00,75.4,65.3,29.86,South,180,6.0,19.0,71,0.00,,,0.00,meteohub,2013-01-28 21:02:00,
2013-01-28 15:07:00,75.6,65.1,29.86,SSW,194,7.0,19.0,70,0.00,,,0.00,meteohub,2013-01-28 21:07:00,
2013-01-28 15:17:00,75.4,66.2,29.86,South,184,9.0,17.0,73,0.00,,,0.00,meteohub,2013-01-28 21:17:00,
2013-01-28 15:27:00,75.2,66.0,29.86,SSE,167,8.0,14.0,73,0.00,,,0.00,meteohub,2013-01-28 21:27:00,
2013-01-28 15:41:00,75.6,65.8,29.86,SSW,211,7.0,19.0,72,0.00,,,0.00,meteohub,2013-01-28 21:41:00,
2013-01-28 15:48:00,75.7,66.0,29.85,SSE,158,9.0,18.0,72,0.00,,,0.00,meteohub,2013-01-28 21:48:00,
2013-01-28 15:55:00,75.9,66.2,29.85,South,188,6.0,14.0,72,0.00,,,0.00,meteohub,2013-01-28 21:55:00,
2013-01-28 16:02:00,76.5,65.5,29.85,SSW,213,7.0,16.0,69,0.00,,,0.00,meteohub,2013-01-28 22:02:00,
2013-01-28 16:09:00,76.8,64.9,29.85,South,190,5.0,16.0,67,0.00,,,0.00,meteohub,2013-01-28 22:09:00,
2013-01-28 16:14:00,77.0,65.1,29.85,SSW,211,7.0,16.0,67,0.00,,,0.00,meteohub,2013-01-28 22:14:00,
2013-01-28 16:20:00,77.2,64.9,29.85,SSW,207,8.0,14.0,66,0.00,,,0.00,meteohub,2013-01-28 22:20:00,
2013-01-28 16:25:00,77.2,64.6,29.85,South,178,7.0,15.0,65,0.00,,,0.00,meteohub,2013-01-28 22:25:00,
2013-01-28 16:31:00,77.4,64.8,29.85,SSW,194,6.0,15.0,65,0.00,,,0.00,meteohub,2013-01-28 22:31:00,
2013-01-28 16:39:00,77.4,64.2,29.85,South,185,9.0,15.0,64,0.00,,,0.00,meteohub,2013-01-28 22:39:00,
2013-01-28 16:46:00,77.4,64.2,29.85,South,171,12.0,17.0,64,0.00,,,0.00,meteohub,2013-01-28 22:46:00,
2013-01-28 16:52:00,77.4,64.2,29.85,SW,224,13.0,17.0,64,0.00,,,0.00,meteohub,2013-01-28 22:52:00,
2013-01-28 16:57:00,77.4,64.2,29.85,SW,221,7.0,17.0,64,0.00,,,0.00,meteohub,2013-01-28 22:57:00,
2013-01-28 17:05:00,77.2,64.0,29.84,SSW,207,9.0,14.0,64,0.00,,,0.00,meteohub,2013-01-28 23:05:00,
2013-01-28 17:12:00,77.0,63.9,29.84,SW,225,9.0,14.0,64,0.00,,,0.00,meteohub,2013-01-28 23:12:00,
2013-01-28 17:17:00,77.2,63.7,29.85,South,175,11.0,15.0,63,0.00,,,0.00,meteohub,2013-01-28 23:17:00,
2013-01-28 17:25:00,77.2,63.7,29.84,SSW,213,6.0,22.0,63,0.00,,,0.00,meteohub,2013-01-28 23:25:00,
2013-01-28 17:32:00,76.8,63.3,29.85,SW,215,10.0,22.0,63,0.00,,,0.00,meteohub,2013-01-28 23:32:00,
2013-01-28 17:48:00,76.6,63.1,29.85,South,190,3.0,17.0,63,0.00,,,0.00,meteohub,2013-01-28 23:48:00,
2013-01-28 17:56:00,76.5,63.3,29.85,SSE,165,5.0,20.0,64,0.00,,,0.00,meteohub,2013-01-28 23:56:00,
2013-01-28 18:02:00,76.3,63.7,29.85,South,179,7.0,20.0,65,0.00,,,0.00,meteohub,2013-01-29 00:02:00,
2013-01-28 18:10:00,76.3,63.7,29.85,SSW,192,10.0,14.0,65,0.00,,,0.00,meteohub,2013-01-29 00:10:00,
2013-01-28 18:17:00,75.9,63.7,29.85,South,191,8.0,14.0,66,0.00,,,0.00,meteohub,2013-01-29 00:17:00,
2013-01-28 18:28:00,75.9,63.3,29.85,SSW,194,6.0,14.0,65,0.00,,,0.00,meteohub,2013-01-29 00:28:00,
2013-01-28 18:34:00,75.7,63.1,29.85,South,188,8.0,14.0,65,0.00,,,0.00,meteohub,2013-01-29 00:34:00,
2013-01-28 18:42:00,75.7,63.1,29.85,SSW,206,7.0,19.0,65,0.00,,,0.00,meteohub,2013-01-29 00:42:00,
2013-01-28 18:49:00,75.7,63.1,29.85,South,186,9.0,17.0,65,0.00,,,0.00,meteohub,2013-01-29 00:49:00,
2013-01-28 18:55:00,75.7,63.1,29.85,SSW,199,8.0,17.0,65,0.00,,,0.00,meteohub,2013-01-29 00:55:00,
2013-01-28 19:03:00,75.6,63.0,29.86,SSE,168,5.0,21.0,65,0.00,,,0.00,meteohub,2013-01-29 01:03:00,
2013-01-28 19:12:00,75.6,63.3,29.86,South,174,6.0,21.0,66,0.00,,,0.00,meteohub,2013-01-29 01:12:00,
2013-01-28 19:17:00,75.4,63.1,29.86,SW,232,7.0,16.0,66,0.00,,,0.00,meteohub,2013-01-29 01:17:00,
2013-01-28 19:22:00,75.4,62.8,29.86,SSW,196,11.0,21.0,65,0.00,,,0.00,meteohub,2013-01-29 01:22:00,
2013-01-28 19:27:00,75.4,62.8,29.86,SSW,202,6.0,21.0,65,0.00,,,0.00,meteohub,2013-01-29 01:27:00,
2013-01-28 19:35:00,75.4,63.1,29.87,SSW,212,7.0,17.0,66,0.00,,,0.00,meteohub,2013-01-29 01:35:00,
2013-01-28 19:43:00,75.2,63.1,29.87,SW,219,6.0,17.0,66,0.00,,,0.00,meteohub,2013-01-29 01:43:00,
2013-01-28 19:59:00,74.8,62.8,29.87,SSW,211,7.0,14.0,66,0.00,,,0.00,meteohub,2013-01-29 01:59:00,
2013-01-28 20:05:00,74.8,62.8,29.87,South,188,7.0,13.0,66,0.00,,,0.00,meteohub,2013-01-29 02:05:00,
2013-01-28 20:13:00,74.7,63.0,29.87,South,176,0.0,13.0,67,0.00,,,0.00,meteohub,2013-01-29 02:13:00,
2013-01-28 20:23:00,74.5,62.8,29.87,SSW,209,3.0,13.0,67,0.00,,,0.00,meteohub,2013-01-29 02:23:00,
2013-01-28 20:36:00,74.5,62.8,29.86,SW,221,9.0,18.0,67,0.00,,,0.00,meteohub,2013-01-29 02:36:00,
2013-01-28 20:43:00,74.5,62.8,29.86,SSE,165,4.0,18.0,67,0.00,,,0.00,meteohub,2013-01-29 02:43:00,
2013-01-28 20:52:00,74.3,62.6,29.86,SSW,204,9.0,17.0,67,0.00,,,0.00,meteohub,2013-01-29 02:52:00,
2013-01-28 20:58:00,74.3,62.6,29.86,South,173,7.0,17.0,67,0.00,,,0.00,meteohub,2013-01-29 02:58:00,
2013-01-28 21:04:00,74.3,63.1,29.86,South,169,10.0,18.0,68,0.00,,,0.00,meteohub,2013-01-29 03:04:00,
2013-01-28 21:19:00,73.9,62.8,29.86,SSW,196,7.0,14.0,68,0.00,,,0.00,meteohub,2013-01-29 03:19:00,
2013-01-28 21:27:00,73.8,62.6,29.86,South,186,8.0,13.0,68,0.00,,,0.00,meteohub,2013-01-29 03:27:00,
2013-01-28 21:38:00,73.6,62.8,29.86,SSW,194,7.0,14.0,69,0.00,,,0.00,meteohub,2013-01-29 03:38:00,
2013-01-28 21:46:00,73.4,63.0,29.86,SSW,201,4.0,16.0,70,0.00,,,0.00,meteohub,2013-01-29 03:46:00,
2013-01-28 21:52:00,73.2,62.8,29.86,South,175,7.0,13.0,70,0.00,,,0.00,meteohub,2013-01-29 03:52:00,
2013-01-28 21:57:00,73.2,63.3,29.85,SSW,207,13.0,14.0,71,0.00,,,0.00,meteohub,2013-01-29 03:57:00,
2013-01-28 22:02:00,73.0,63.1,29.85,South,171,8.0,16.0,71,0.00,,,0.00,meteohub,2013-01-29 04:02:00,
2013-01-28 22:08:00,73.0,63.1,29.85,SSW,209,8.0,16.0,71,0.00,,,0.00,meteohub,2013-01-29 04:08:00,
2013-01-28 22:15:00,72.9,63.0,29.85,South,175,12.0,19.0,71,0.00,,,0.00,meteohub,2013-01-29 04:15:00,
2013-01-28 22:22:00,72.9,63.0,29.85,SSW,209,18.0,19.0,71,0.00,,,0.00,meteohub,2013-01-29 04:22:00,
2013-01-28 22:30:00,72.7,63.1,29.85,SSW,202,10.0,20.0,72,0.00,,,0.00,meteohub,2013-01-29 04:30:00,
2013-01-28 22:37:00,72.5,63.0,29.86,South,179,9.0,24.0,72,0.00,,,0.00,meteohub,2013-01-29 04:37:00,
2013-01-28 22:43:00,72.3,62.8,29.86,SSW,208,9.0,24.0,72,0.00,,,0.00,meteohub,2013-01-29 04:43:00,
2013-01-28 22:48:00,72.3,63.1,29.86,SSW,203,5.0,19.0,73,0.00,,,0.00,meteohub,2013-01-29 04:48:00,
2013-01-28 22:57:00,72.3,63.1,29.86,SSW,207,7.0,19.0,73,0.00,,,0.00,meteohub,2013-01-29 04:57:00,
2013-01-28 23:01:00,72.1,63.0,29.86,SW,217,11.0,15.0,73,0.00,,,0.00,meteohub,2013-01-29 05:01:00,
2013-01-28 23:03:00,72.1,63.0,29.86,South,173,11.0,15.0,73,0.00,,,0.00,meteohub,2013-01-29 05:03:00,
2013-01-28 23:10:00,72.0,63.1,29.85,SSW,196,7.0,15.0,74,0.00,,,0.00,meteohub,2013-01-29 05:10:00,
2013-01-28 23:17:00,71.8,63.5,29.85,SSW,198,11.0,23.0,75,0.00,,,0.00,meteohub,2013-01-29 05:17:00,
2013-01-28 23:24:00,71.6,63.3,29.85,South,170,10.0,23.0,75,0.00,,,0.00,meteohub,2013-01-29 05:24:00,
2013-01-28 23:35:00,71.1,63.5,29.85,South,189,14.0,17.0,77,0.00,,,0.00,meteohub,2013-01-29 05:35:00,
2013-01-28 23:42:00,70.9,63.7,29.85,South,176,8.0,16.0,78,0.00,,,0.00,meteohub,2013-01-29 05:42:00,
2013-01-28 23:48:00,70.5,63.3,29.84,South,188,14.0,17.0,78,0.00,,,0.00,meteohub,2013-01-29 05:48:00,
2013-01-28 23:56:00,70.5,63.3,29.84,SSW,209,7.0,16.0,78,0.00,,,0.00,meteohub,2013-01-29 05:56:00,